AO-07 1 07530U 74089B 22321.63412233 -.00000016 00000-0 18606-3 0 9999 2 07530 101.9252 302.0904 0012412 107.6635 302.6927 12.53658659196660 UO-11 1 14781U 84021B 22321.53143170 .00001011 00000-0 12757-3 0 9998 2 14781 97.6343 302.1429 0008440 167.6581 192.4842 14.83976333 62742 AO-16 1 20439U 90005D 22321.55238312 .00000134 00000-0 65758-4 0 9994 2 20439 98.8638 301.6210 0011841 102.1802 14.1026 14.32960226714599 LO-19 1 20442U 90005G 22321.49399188 .00000136 00000-0 66456-4 0 9998 2 20442 98.8161 288.8505 0012846 80.4193 279.8441 14.33113646715021 HUBBLE 1 20580U 90037B 22321.49673032 .00002681 00000-0 14462-3 0 9995 2 20580 28.4697 234.2676 0002391 248.7033 282.8089 15.11276098589385 MET-2/21 1 22782U 93055A 22321.35740387 .00000017 00000-0 21901-5 0 9996 2 22782 82.5494 252.8664 0020987 279.6014 195.3529 13.83863126475150 AO-27 1 22825U 93061C 22321.58780667 .00000066 00000-0 43288-4 0 9996 2 22825 98.8716 355.7510 0007856 331.8797 28.1960 14.30210513520047 IO-26 1 22826U 93061D 22321.85356160 .00000083 00000-0 49677-4 0 9991 2 22826 98.8661 355.8925 0008176 315.8583 44.1946 14.30561104520349 FO-29 1 24278U 96046B 22321.56775512 -.00000003 00000-0 34786-4 0 9992 2 24278 98.5142 324.1747 0349312 245.9178 110.5054 13.53124434296317 NOAA-15 1 25338U 98030A 22321.85509484 .00000131 00000-0 72753-4 0 9997 2 25338 98.6305 349.2885 0009938 204.9854 155.0846 14.26197248274886 GO-32 1 25397U 98043D 22321.62968544 .00000078 00000-0 53934-4 0 9997 2 25397 98.8384 272.6343 0002047 53.3614 306.7752 14.23788502265227 ISS 1 25544U 98067A 22322.03968196 .00009365 00000-0 17140-3 0 9992 2 25544 51.6441 294.4248 0007043 87.4484 26.2999 15.50068246369041 NO-44 1 26931U 01043C 22321.54427506 .00000118 00000-0 76817-4 0 9995 2 26931 67.0530 23.2307 0005228 266.1791 93.8713 14.30764481103306 SO-50 1 27607U 02058C 22321.08211095 .00000626 00000-0 10554-3 0 9995 2 27607 64.5540 194.7493 0081286 265.4414 93.7401 14.76417896 70909 CO-55 1 27844U 03031E 22321.76546336 .00000271 00000-0 14107-3 0 9998 2 27844 98.6803 327.1567 0010228 24.1348 336.0307 14.22541207 5675 CO-57 1 27848U 03031J 22321.49529063 .00000229 00000-0 12298-3 0 9992 2 27848 98.6844 327.3748 0010381 38.7630 321.4291 14.22085694 5417 RS-22 1 27939U 03042A 22321.95172711 .00000825 00000-0 15377-3 0 9993 2 27939 98.2140 102.8581 0013936 85.0120 275.2671 14.67619939 23559 NOAA-18 1 28654U 05018A 22321.81946305 .00000115 00000-0 85902-4 0 9990 2 28654 98.9348 32.0235 0013353 256.7016 103.2667 14.12808257901637 CO-58 1 28895U 05043F 22321.36125518 .00001018 00000-0 20004-3 0 9994 2 28895 98.1276 90.5967 0016880 23.9419 336.2565 14.64664492909794 Falconsat-3 1 30776U 07006E 22321.32800149 .00106776 00000-0 75945-3 0 9993 2 30776 35.4276 328.6700 0006311 178.0487 182.0277 15.72534787873479 CO-65 1 32785U 08021C 22321.76177825 .00001801 00000-0 19088-3 0 9998 2 32785 97.6785 287.9703 0014345 85.6946 274.5911 14.90242797789389 AAUSAT2 1 32788U 08021F 22321.86205451 .00004029 00000-0 33692-3 0 9991 2 32788 97.5497 302.0061 0010821 335.6929 24.3782 14.98995509791408 DO-64 1 32789U 08021G 22321.79438047 .00013371 00000-0 65826-3 0 9997 2 32789 97.3287 342.8398 0010664 139.3734 220.8298 15.18051711795159 CO-66 1 32791U 08021J 22321.57999020 .00002936 00000-0 28278-3 0 9994 2 32791 97.6309 293.1365 0013940 44.7472 315.4870 14.93629920790045 RS-30 1 32953U 08025A 22321.77822160 .00000024 00000-0 10000-3 0 9990 2 32953 82.5010 88.5829 0018633 285.6264 74.2760 12.43115257657380 PRISM 1 33493U 09002B 22321.52326093 .00005160 00000-0 40319-3 0 9995 2 33493 98.2519 317.1108 0017758 39.8980 320.3544 15.01466795751934 NOAA-19 1 33591U 09005A 22321.83833776 .00000150 00000-0 10563-3 0 9994 2 33591 99.1314 359.0804 0014780 116.0252 244.2442 14.12639092709843 SRMSAT 1 37841U 11058D 22321.90819642 .00000397 00000-0 72861-4 0 9994 2 37841 19.9730 47.3125 0011673 230.1379 289.4258 14.10794532572939 HRBE 1 37855U 11061F 22321.51855724 .00010543 00000-0 42970-3 0 9992 2 37855 101.7172 162.2057 0144503 322.7299 36.3958 15.15730444604393 RS-40 1 38735U 12041C 22321.87940936 .00000023 00000-0 97582-4 0 9990 2 38735 82.4767 169.8535 0017942 37.6584 322.5740 12.42588940467570 ZACUBE-1 1 39417U 13066B 22321.50277555 .00002081 00000-0 25580-3 0 9990 2 39417 97.6575 286.3023 0055192 262.7200 96.7739 14.83018811485801 Delfi-N3xt 1 39428U 13066N 22321.39108731 .00002003 00000-0 30884-3 0 9995 2 39428 97.8224 249.2851 0116285 147.8761 212.9601 14.69999317480997 GOMX-1 1 39430U 13066Q 22321.79599184 .00002129 00000-0 38490-3 0 9998 2 39430 97.7952 220.1568 0146906 281.5252 76.9485 14.60643529478676 LO-74 1 39440U 13066AA 22321.67250219 .00002640 00000-0 35835-3 0 9997 2 39440 97.7459 272.9765 0077955 355.6841 4.3688 14.77593343482904 AO-73 1 39444U 13066AE 22321.53713163 .00002625 00000-0 31184-3 0 9994 2 39444 97.6450 288.7694 0053924 249.3700 110.1727 14.84247344484814 SPROUT 1 39770U 14029E 22321.64473418 .00010643 00000-0 10208-2 0 9996 2 39770 97.9552 79.8617 0007727 303.8509 56.1952 14.93277695460500 DTUSAT-2 1 40030U 14033W 22321.33120307 .00002168 00000-0 22658-3 0 9990 2 40030 97.9477 254.8323 0009749 272.3093 87.7008 14.90718996456418 EO-80 1 40032U 14033Y 22321.37318559 .00002966 00000-0 30789-3 0 9994 2 40032 97.9479 254.8896 0009595 273.1717 86.8402 14.90700452456391 HODOYOSHI-1 1 40299U 14070B 22321.95141525 .00006443 00000-0 23353-3 0 9994 2 40299 97.2255 25.5571 0010601 317.8415 163.5523 15.28646834446497 FIREBIRD FU3 1 40377U 15003B 22321.63696997 .00021042 00000-0 52901-3 0 9994 2 40377 99.0776 221.1855 0085633 223.2936 136.1553 15.36241290431877 FIREBIRD FU4 1 40378U 15003C 22321.65230489 .00020962 00000-0 52555-3 0 9992 2 40378 99.0785 221.4549 0085490 222.7117 136.7456 15.36336850431883 GRIFEX 1 40379U 15003D 22321.62838456 .00014907 00000-0 48036-3 0 9999 2 40379 99.0875 205.4147 0105525 272.4604 86.4552 15.27008556430960 XW-2A 1 40903U 15049E 22321.76344490 .00038744 00000-0 44148-3 0 9992 2 40903 97.1578 21.0858 0006178 265.1495 236.0539 15.62139436403110 XW-2C 1 40906U 15049H 22321.74264133 .00006915 00000-0 31535-3 0 9999 2 40906 97.4965 324.1291 0013019 174.8589 295.7660 15.20883857396201 XW-2D 1 40907U 15049J 22321.75366025 .00007936 00000-0 35183-3 0 9991 2 40907 97.4961 324.2750 0012584 169.2226 294.6691 15.21809171396267 LILACSAT-2 1 40908U 15049K 22321.79635845 .00003926 00000-0 20279-3 0 9990 2 40908 97.5228 321.0052 0014094 198.1179 239.3471 15.16810360395729 XW-2E 1 40909U 15049L 22321.83274598 .00012727 00000-0 48453-3 0 9993 2 40909 97.4643 329.2922 0012652 146.2969 336.9176 15.26800515396780 XW-2F 1 40910U 15049M 22321.74753547 .00012667 00000-0 49024-3 0 9999 2 40910 97.4734 328.3804 0013354 147.6826 327.6415 15.26249506396532 XW-2B 1 40911U 15049N 22321.78781041 .00007880 00000-0 35077-3 0 9998 2 40911 97.4938 324.8544 0012293 170.7643 275.6154 15.21673981396159 DCBB 1 40912U 15049P 22321.80229183 .00014395 00000-0 49908-3 0 9993 2 40912 97.4339 332.7904 0014051 113.8372 299.1730 15.29830328397165 TW-1A 1 40928U 15051D 22321.80427428 .00175637 00000-0 79164-3 0 9999 2 40928 97.0173 344.7407 0006643 141.0667 306.1921 15.83549917402263 IO-86 1 40931U 15052B 22321.47764435 .00001144 00000-0 69778-4 0 9991 2 40931 5.9962 157.4192 0012323 177.9137 182.1049 14.76922453386000 AO-85 1 40967U 15058D 22320.38482594 .00001770 00000-0 20695-3 0 5353 2 40967 64.7757 329.4496 0174628 149.7513 211.3766 14.78155467 83116 ATHENOXAT-1 1 41168U 15077C 22321.41474005 .00021067 00000-0 75797-3 0 9999 2 41168 14.9818 33.1724 0008168 250.0448 197.5081 15.26117053383667 ChubuSat-2 1 41338U 16012B 22321.81591442 .00002141 00000-0 15262-3 0 9990 2 41338 31.0018 126.9945 0012974 236.0720 123.8682 15.02038851370556 ChubuSat-3 1 41339U 16012C 22321.80295097 .00002493 00000-0 17872-3 0 9996 2 41339 31.0092 123.9925 0012765 245.2007 114.7284 15.02065279370553 Horyu-4 1 41340U 16012D 22321.57148477 .00004113 00000-0 28060-3 0 9993 2 41340 31.0039 100.5706 0012715 286.7372 73.1869 15.04443948370792 [email protected] 1 41459U 16025D 22321.90037396 .00015929 00000-0 62331-3 0 9998 2 41459 98.1932 138.9538 0135270 107.2678 254.3381 15.17749997360737 AAUSAT4 1 41460U 16025E 22321.76426204 .00024651 00000-0 79113-3 0 9992 2 41460 98.1807 146.6391 0109980 78.1718 283.1661 15.26535413361269 LO-87 1 41557U 16033B 22321.88439108 .00020148 00000-0 51586-3 0 9999 2 41557 97.3902 60.2758 0010046 182.0074 317.6569 15.39383678360947 NuSat2 1 41558U 16033C 22321.85655088 .00019743 00000-0 47547-3 0 9995 2 41558 97.4144 66.8404 0009757 171.0472 341.9275 15.41255649361230 Lapan A3 1 41603U 16040E 22321.80634347 .00001720 00000-0 80088-4 0 9998 2 41603 97.1906 352.0584 0012719 349.6597 125.6894 15.21139693355343 Pratham 1 41783U 16059A 22321.58525761 .00000398 00000-0 84923-4 0 9993 2 41783 97.8963 356.8809 0034372 51.6815 308.7470 14.63506816328025 TY-1 1 41844U 16066D 22321.89453769 .00017396 00000-0 51457-3 0 9992 2 41844 97.3854 333.5870 0014249 98.6629 18.9576 15.34874323335106 CAS-2T 1 41847U 16066G 22321.62429182 .00000851 00000-0 13541-3 0 9998 2 41847 98.5337 26.0169 0363728 111.5139 252.5232 14.38905970316372 EO-88 1 42017U 17008BX 22321.15887185 .00023095 00000-0 56375-3 0 9991 2 42017 97.2504 25.4387 0005234 67.5421 292.6379 15.40846452320531 CAS-4B 1 42759U 17034B 22321.86067189 .00006023 00000-0 34467-3 0 9995 2 42759 43.0170 206.4214 0009401 187.6147 266.1606 15.13270769299582 CAS-4A 1 42761U 17034D 22321.88947634 .00005841 00000-0 33378-3 0 9999 2 42761 43.0168 204.9398 0010090 189.2014 274.5712 15.13360835299591 NIUSat 1 42766U 17036B 22321.61153991 .00008869 00000-0 31347-3 0 9999 2 42766 97.1864 354.0860 0014042 136.2781 223.9575 15.29318222300187 Aalto 1 1 42775U 17036L 22321.61711217 .00007141 00000-0 26352-3 0 9992 2 42775 97.1815 353.7015 0013089 136.2435 223.9845 15.27981211300145 URSA MAIOR 1 42776U 17036M 22321.59730194 .00008019 00000-0 28839-3 0 9992 2 42776 97.1829 354.5864 0012767 134.5107 225.7179 15.28797563300181 Max Valier Sat 1 42778U 17036P 22321.61124568 .00009504 00000-0 32992-3 0 9994 2 42778 97.1880 357.5502 0011369 133.8704 226.3478 15.29917739300295 Pegasus 1 42784U 17036V 22321.63190319 .00011985 00000-0 38097-3 0 9998 2 42784 97.1817 358.7897 0010656 132.4410 227.7735 15.32709477300449 NUDATSat 1 42787U 17036Y 22321.92204420 .00031658 00000-0 76583-3 0 9993 2 42787 97.1824 4.5956 0008963 116.7951 243.4207 15.41030610300664 SUCHAI 1 1 42788U 17036Z 22321.60770630 .00016654 00000-0 48326-3 0 9993 2 42788 97.1815 0.8939 0009884 125.8788 234.3375 15.35534933300640 SKCUBE 1 42789U 17036AA 22321.69982278 .00013970 00000-0 42279-3 0 9995 2 42789 97.1817 0.2324 0010034 127.0399 233.1764 15.34244632300536 VZLUSAT 1 1 42790U 17036AB 22321.62622975 .00025123 00000-0 61603-3 0 9990 2 42790 97.1831 4.2260 0008578 116.8587 243.3537 15.40668735300769 VENTA 1 1 42791U 17036AC 22321.68181590 .00011983 00000-0 37681-3 0 9998 2 42791 97.1824 359.9307 0009863 128.7151 231.4975 15.33064023300509 Robusta 1B 1 42792U 17036AD 22321.58949364 .00015985 00000-0 47002-3 0 9993 2 42792 97.1811 0.8327 0009507 126.7670 233.4448 15.35131612300574 D-SAT 1 42794U 17036AF 22321.69421344 .00002781 00000-0 23514-3 0 9992 2 42794 97.4571 319.1241 0119555 292.2815 66.5764 14.93458142294344 TechnoSat 1 42829U 17042E 22321.52647954 .00001732 00000-0 17447-3 0 9990 2 42829 97.4016 166.6296 0012935 209.9973 150.0507 14.92292123290913 AO-91 1 43017U 17073E 22321.64517820 .00004141 00000-0 30633-3 0 9994 2 43017 97.6542 209.5073 0245859 45.9304 316.1866 14.82602197269800 PICSAT 1 43132U 18004X 22321.19540785 .00015312 00000-0 43548-3 0 9994 2 43132 97.3590 37.0585 0007386 163.4094 196.7393 15.36210602269817 AO-92 1 43137U 18004AC 22321.18481721 .00011827 00000-0 37379-3 0 9994 2 43137 97.3552 35.1571 0007442 169.0934 191.0471 15.32933066269718 TianYi 2 1 43155U 18008A 22321.79927756 .00009427 00000-0 46894-3 0 9993 2 43155 97.3329 15.3137 0014712 336.1164 131.0166 15.17733945266515 Zhou Enlai 1 43156U 18008B 22321.82396407 .00010041 00000-0 50109-3 0 9999 2 43156 97.3386 15.2679 0011977 338.5537 81.1174 15.17636799266444 TianYi 6 1 43158U 18008D 22321.67335811 .00008709 00000-0 45290-3 0 9999 2 43158 97.3329 12.7624 0011515 340.8776 139.0024 15.16230943266306 S-Net D 1 43186U 18014G 22321.64404676 .00001323 00000-0 11523-3 0 9997 2 43186 97.6465 224.3917 0011045 135.0780 225.1338 14.98559142261858 S-Net B 1 43187U 18014H 22321.64440986 .00001091 00000-0 95828-4 0 9995 2 43187 97.6461 224.3361 0011017 135.2983 224.9130 14.98555125261858 S-Net A 1 43188U 18014J 22321.64471516 .00001334 00000-0 11611-3 0 9996 2 43188 97.6466 224.4089 0010994 135.3794 224.8315 14.98555952261858 S-Net C 1 43189U 18014K 22321.64573703 .00001371 00000-0 11920-3 0 9992 2 43189 97.6458 224.3239 0010948 135.7341 224.4759 14.98550533260405 FMN 1 1 43192U 18015A 22321.82727323 .00059592 00000-0 10490-2 0 9994 2 43192 97.5510 112.3082 0009567 207.0365 259.7822 15.50212368267097 Shaonian Xing 1 43199U 18015H 22321.78842199 .00028006 00000-0 68819-3 0 9990 2 43199 97.5312 105.6040 0011976 210.6641 257.2346 15.40550965266996 SurfSat 1 43614U 18070B 22321.83668165 .00093205 00000-0 67306-3 0 9991 2 43614 93.0035 164.3280 0008985 107.9548 252.2705 15.73186454235005 CP-7 DAVE 1 43615U 18070C 22321.54075034 .00070612 00000-0 60435-3 0 9990 2 43615 93.0033 163.8275 0009650 114.7121 245.5155 15.69169261234897 CubeBel-1 1 43666U 18083E 22321.79188490 .00013479 00000-0 51967-3 0 9996 2 43666 97.4079 348.9193 0013275 145.6330 332.2262 15.26358593224847 Changshagaoxin 1 43669U 18083H 22321.87379720 .00011150 00000-0 45459-3 0 9999 2 43669 97.4039 344.5016 0009886 142.2889 342.6042 15.24572216224655 Ten-Koh 1 43677U 18084G 22321.79669509 .00001641 00000-0 16909-3 0 9999 2 43677 97.9855 93.4799 0016661 123.8189 236.4617 14.91583336220539 PO-101 1 43678U 18084H 22321.86433779 .00001094 00000-0 11230-3 0 9990 2 43678 97.9922 97.1613 0010712 134.2330 225.9778 14.92487495220739 IRVINE 01 1 43693U 18088D 22321.41113119 .00087325 00000-0 12418-2 0 9994 2 43693 85.0248 206.1193 0001512 213.0930 147.0236 15.56066860223826 QO-100 1 43700U 18090A 22321.81569410 .00000160 00000-0 00000-0 0 9993 2 43700 0.0155 279.6949 0001377 344.2284 112.4330 1.00274137 14563 Reaktor Hello World 1 43743U 18096AA 22321.64247558 .00016870 00000-0 44345-3 0 9991 2 43743 97.3419 41.1754 0012761 225.1063 134.9147 15.38580012221472 MinXSS-2 1 43758U 18099A 22321.83814183 .00002590 00000-0 22157-3 0 9996 2 43758 97.6071 26.0041 0015399 109.4068 250.8821 14.98371845216068 AO-95 1 43770U 18099N 22321.14565984 .00002204 00000-0 19461-3 0 9992 2 43770 97.6048 23.4577 0015256 119.7663 240.5079 14.97288998215850 RANGE-B 1 43772U 18099Q 22321.13285978 .00004135 00000-0 35266-3 0 9991 2 43772 97.6158 25.5099 0015241 108.5807 251.7073 14.98173183215887 RANGE-A 1 43773U 18099R 22321.18554073 .00002480 00000-0 22200-3 0 9997 2 43773 97.5956 22.1133 0014753 109.6915 250.5901 14.96646630215836 MOVE-II 1 43780U 18099Y 22321.41781857 .00004181 00000-0 34754-3 0 9990 2 43780 97.6105 25.2777 0013744 111.2738 248.9954 14.99179976215960 SNUSat 2 1 43782U 18099AA 22321.84649642 .00002311 00000-0 20343-3 0 9996 2 43782 97.6034 24.6397 0013471 106.3444 253.9260 14.97387225215984 SnugLite 1 43784U 18099AC 22321.85890264 .00003143 00000-0 27256-3 0 9991 2 43784 97.6001 24.2752 0016166 112.3412 247.9526 14.97689872216013 ITASat 1 1 43786U 18099AE 22321.79715892 .00002807 00000-0 24622-3 0 9999 2 43786 97.6069 25.0854 0016346 112.0802 248.2158 14.97318432215993 EAGLET 1 1 43790U 18099AJ 22321.14561808 .00001840 00000-0 16309-3 0 9998 2 43790 97.6070 24.9957 0014544 115.8404 244.4320 14.97358349215630 ESEO 1 43792U 18099AL 22321.41528579 .00001009 00000-0 93476-4 0 9996 2 43792 97.6013 24.2307 0014466 113.4891 246.7852 14.96561229215703 CSIM 1 43793U 18099AM 22321.78998714 .00004163 00000-0 34047-3 0 9991 2 43793 97.6075 26.6990 0014828 111.0362 249.2449 14.99802547215855 Astrocast 0.1 1 43798U 18099AS 22321.82191541 .00002906 00000-0 24542-3 0 9996 2 43798 97.6094 26.3996 0013255 90.7981 269.4760 14.98809531216071 JO-97 1 43803U 18099AX 22321.42217880 .00002164 00000-0 18768-3 0 9993 2 43803 97.6034 24.5353 0015528 111.1860 249.1024 14.98010868215960 Suomi 100 1 43804U 18099AY 22321.85289711 .00002703 00000-0 23414-3 0 9996 2 43804 97.6017 24.8404 0016013 111.9234 248.3693 14.97853064216039 Al Farabi 2 1 43805U 18099AZ 22321.83784047 .00003568 00000-0 30098-3 0 9993 2 43805 97.6025 25.5105 0014840 110.3277 249.9507 14.98696394216067 CHOMPTT 1 43855U 18104G 22321.41565399 .00009720 00000-0 32803-3 0 9998 2 43855 85.0312 308.9805 0015961 40.3536 319.8891 15.30411649218095 ISAT 1 43879U 18111D 22321.65330465 .00002659 00000-0 22367-3 0 9990 2 43879 97.6517 224.4692 0011971 161.6513 198.5144 14.99062725212618 UWE-4 1 43880U 18111E 22321.64299180 .00002231 00000-0 18797-3 0 9997 2 43880 97.6580 225.2553 0011043 155.8128 204.3616 14.99171359212649 Sparrow 1 43881U 18111F 22321.64203647 .00002793 00000-0 23269-3 0 9994 2 43881 97.6602 225.5482 0011067 151.9120 208.2702 14.99402744212659 Lume 1 1 43908U 18111AJ 22321.63159348 .00011976 00000-0 36590-3 0 9995 2 43908 97.1678 204.7192 0014644 243.7634 116.2105 15.33923927216848 FO-99 1 43937U 19003F 22321.61341061 .00014739 00000-0 43255-3 0 9997 2 43937 97.1161 349.2671 0017237 330.9669 29.0615 15.35103582213430 MYSat 1 1 44045U 18092F 22321.88183830 .00240016 00000-0 10106-2 0 9999 2 44045 51.6214 16.2833 0011971 358.2443 1.8516 15.84160531211884 AstroCast 0.2 1 44083U 19018F 22321.62168543 .00011568 00000-0 38862-3 0 9994 2 44083 97.3029 17.7634 0007375 304.8388 55.2159 15.30971306201886 AISTechSat 3 1 44103U 19018AB 22321.64850552 .00009790 00000-0 33272-3 0 9991 2 44103 97.2893 17.9664 0009975 317.1201 42.9262 15.30620338202055 AISat 1 1 44104U 19018AC 22321.20825812 .00008278 00000-0 21428-3 0 9995 2 44104 97.3877 45.1030 0047741 306.2632 53.4206 15.38146202203056 Prox-1 1 44339U 19036A 22321.28975860 .00003943 00000-0 82825-3 0 9994 2 44339 24.0012 307.9616 0011161 94.5275 265.6492 14.56149732180643 Oculus-ASR 1 44348U 19036K 22321.86020021 .00075246 -53375-5 45134-3 0 9994 2 44348 28.4955 198.9158 0166534 258.3907 99.7961 15.59085926188309 NO-104 1 44354U 19036R 22320.94863362 .00088402 -47538-5 47609-3 0 9993 2 44354 28.5201 186.2961 0154223 274.9457 83.3559 15.63342203188355 Move-IIb 1 44398U 19038N 22321.84284709 .00019536 00000-0 82645-3 0 9993 2 44398 97.6459 293.1288 0018667 324.2382 35.7601 15.23085631186343 SONATE 1 44400U 19038Q 22321.79034913 .00006827 00000-0 35358-3 0 9999 2 44400 97.6589 291.2871 0021858 329.4914 30.5044 15.16333222186159 BeeSat 9 1 44412U 19038AC 22321.44430764 .00009861 00000-0 46155-3 0 9996 2 44412 97.6545 292.2646 0017866 332.6882 27.3411 15.19808476185904 JAISAT-1 1 44419U 19038F 22321.44850546 .00009611 00000-0 44430-3 0 9994 2 44419 97.6550 293.2235 0016721 329.8407 30.1864 15.20264559186277 LightSail-2 1 44420U 19036AC 22320.00463817 .06035209 00000-0 44554-1 0 9999 2 44420 23.9883 192.8403 0026944 276.6165 212.0548 15.67402264179909 Taurus 1 1 44530U 19059C 22321.82379351 .00003025 00000-0 82936-3 0 9999 2 44530 98.5516 61.9016 0013004 20.6658 339.4997 14.47797968168034 Duchifat 3 1 44854U 19089C 22321.27654735 .00005750 00000-0 43209-3 0 9999 2 44854 36.9642 273.6506 0007483 13.0173 132.7310 15.02337984160919 OPS-SAT 1 44878U 19092F 22321.77838481 .00010597 00000-0 44955-3 0 9990 2 44878 97.4783 144.7284 0011890 159.3705 200.8014 15.23227978161504 TO-108 1 44881U 19093C 22321.79537550 .00000780 00000-0 10491-3 0 9991 2 44881 97.8822 38.7290 0016061 50.7081 309.5542 14.81934398157480 FloripaSat 1 1 44885U 19093G 22321.80193602 .00002603 00000-0 32002-3 0 9991 2 44885 97.8874 40.4710 0015307 55.0958 305.1660 14.83795723157584 RS-44 1 44909U 19096E 22321.50586348 .00000026 00000-0 65183-4 0 9995 2 44909 82.5177 128.6103 0216762 322.0898 36.5107 12.79716633135089 BY70-2 1 45857U 20042B 22321.82271592 .00009716 00000-0 12262-2 0 9991 2 45857 97.9447 37.3226 0008995 341.1655 18.9143 14.82103563128156 UPMSat 2 1 46276U 20061E 22321.62472351 .00004266 00000-0 20404-3 0 9995 2 46276 97.3761 28.9306 0002005 48.3621 311.7785 15.19516174122129 AmicalSat 1 46287U 20061R 22320.74963153 .00005868 00000-0 32267-3 0 9993 2 46287 97.4305 26.8650 0003791 104.0962 256.0691 15.14445084121500 SALSAT 1 46495U 20068K 22321.76462324 .00002334 00000-0 16704-3 0 9991 2 46495 97.7456 263.2859 0018122 114.5728 245.7389 15.05315261117247 BY70-3 1 46839U 20079N 22321.83412358 .00041079 00000-0 70232-3 0 9990 2 46839 97.1811 32.5464 0005382 133.0947 10.5791 15.51156057113934 CAPE 3 1 47309U 21002A 22321.78779373 .00011423 00000-0 41117-3 0 9997 2 47309 60.6810 146.5296 0041397 72.0428 288.5168 15.28265601101855 AO-109 1 47311U 21002C 22321.60780879 .00009043 00000-0 32858-3 0 9991 2 47311 60.6829 144.6270 0037545 70.9812 289.5339 15.28338059101841 MiTEE 1 1 47314U 21002F 22321.74694182 .00026314 00000-0 71078-3 0 9997 2 47314 60.6788 131.9001 0034010 65.0531 295.4090 15.37103889102095 ExoCube 2 1 47319U 21002L 22321.78357327 .00009529 00000-0 35038-3 0 9998 2 47319 60.6814 145.4015 0039045 72.2956 288.2389 15.27836371101817 UVSQ-SAT 1 47438U 21006AB 22321.62151110 .00006143 00000-0 30684-3 0 9990 2 47438 97.4188 17.5043 0012941 102.0251 258.2434 15.17759501100496 YUSAT 1 1 47439U 21006AC 22321.13675976 .00007273 00000-0 35425-3 0 9991 2 47439 97.4192 17.2739 0012518 103.2062 257.0569 15.18583997100439 SOMP 2b 1 47445U 21006AJ 22321.13049379 .00005885 00000-0 29828-3 0 9997 2 47445 97.4157 16.5479 0012626 107.4091 252.8524 15.17272144100407 IDEASSat 1 47458U 21006AX 22321.39285255 .00005900 00000-0 30049-3 0 9999 2 47458 97.4246 17.4414 0011778 105.3198 254.9338 15.17105699100430 CubeSX-Sirius-HSE 1 47951U 21022V 22321.83801220 .00006212 00000-0 39591-3 0 9998 2 47951 97.5129 218.1092 0020331 347.2352 80.5839 15.08913740 91112 CubeSX-HSE 1 47952U 21022W 22321.89731311 .00005779 00000-0 36807-3 0 9992 2 47952 97.5128 218.1977 0020558 346.5342 143.5235 15.08965558 91121 KSU-Cubesat 1 47954U 21022Y 22321.60989635 .00005619 00000-0 35462-3 0 9996 2 47954 97.5141 218.0920 0019781 346.5281 13.5417 15.09326307 90810 GRBAlpha 1 47959U 21022AD 22321.87937755 .00005820 00000-0 37036-3 0 9999 2 47959 97.5142 218.2340 0020153 347.3860 72.2897 15.09005043 89948 Orbicraft-Zorkiy 1 47960U 21022AE 22321.77092016 .00006759 00000-0 42624-3 0 9993 2 47960 97.5160 218.3393 0019884 346.9405 84.9098 15.09280886 90628 STECCO 1 47962U 21022AG 22321.81742049 .00010084 00000-0 58872-3 0 9996 2 47962 97.5123 219.5204 0014918 341.7411 58.4852 15.12030122 90024 DO-111 1 47963U 21022AH 22321.29590499 .00023110 00000-0 10822-2 0 9995 2 47963 97.5169 221.2706 0013971 337.1934 22.8678 15.19640154 90108 MO-110 1 47964U 21022AJ 22321.61471193 .00008629 00000-0 49772-3 0 9996 2 47964 97.5146 219.6888 0017075 336.8055 23.2403 15.12482416 90014 FEES 1 48082U 21022AL 22321.65567154 .00011469 00000-0 63428-3 0 9995 2 48082 97.5153 219.8615 0013047 336.8684 23.1958 15.13960745 89735 CSS 1 48274U 21035A 22321.85553906 .00020824 00000-0 26678-3 0 9995 2 48274 41.4787 2.8733 0005865 268.8859 260.5954 15.58663001 88799 TUBIN 1 48900U 21059X 22321.86427208 .00005309 00000-0 28567-3 0 9993 2 48900 97.5741 90.2448 0008900 297.8411 179.9057 15.15249310 77139 IT-SPINS 1 49017U 21013G 22321.43195890 .00010210 00000-0 35801-3 0 9991 2 49017 51.5984 25.9958 0007415 278.0469 81.9669 15.30002432 77177 LEDSAT 1 49069U 21073D 22321.20629907 .00004757 00000-0 29385-3 0 9999 2 49069 97.5101 31.0620 0027479 129.1285 231.2393 15.10034878 68871 CUTE 1 49263U 21088D 22321.58479194 .00004487 00000-0 32392-3 0 9995 2 49263 97.5738 26.4305 0017875 262.7802 97.1392 15.04480396 62436 TeikyoSat 4 1 49396U 21102B 22321.63666214 .00001848 00000-0 14839-3 0 9990 2 49396 97.5379 14.9194 0017486 95.8621 264.4597 15.01142637 56028 Z-Sat 1 49399U 21102E 22321.84068468 .00002402 00000-0 18126-3 0 9993 2 49399 97.5174 16.3030 0023590 69.9962 290.3801 15.03143957 56127 KOSEN 1 1 49402U 21102H 22321.12375585 .00001828 00000-0 13463-3 0 9990 2 49402 97.5097 15.8446 0023076 63.3186 297.0400 15.04360379 56057 HO-113 1 50466U 21131B 22321.82037542 .00000179 00000-0 73088-4 0 9997 2 50466 98.5705 38.9207 0005273 62.3880 297.7842 14.38577546 46964 Tevel 1 50999U 22002R 22321.86203442 .00010282 00000-0 51706-3 0 9992 2 50999 97.4639 26.5371 0009122 243.4479 227.9991 15.17393354 46665 Grizu-263a 1 51025U 22002AT 22321.13698724 .00016932 00000-0 75164-3 0 9996 2 51025 97.4815 27.3897 0010532 249.3059 110.7048 15.21583034 46618 NO-116 1 51031U 22002AZ 22321.11954713 .00011434 00000-0 54407-3 0 9993 2 51031 97.4772 26.7714 0010985 250.6078 109.3969 15.19277835 46584 IRIS-A 1 51044U 22002BN 22321.13679147 .00004783 00000-0 26025-3 0 9998 2 51044 97.4655 25.2384 0007589 253.9426 106.0971 15.14900690 46511 DELFI-PQ 1 51074U 22002CU 22321.14347054 .00012907 00000-0 58190-3 0 9996 2 51074 97.4895 28.0174 0011404 282.7270 77.2690 15.21105231 46632 SO-115 1 51080U 22002DA 22321.17056776 .00008060 00000-0 38475-3 0 9993 2 51080 97.4931 27.7316 0010857 284.3054 75.6975 15.19272680 46619 SO-114 1 51081U 22002DB 22319.98514026 .00008764 00000-0 41802-3 0 9996 2 51081 97.4904 26.5204 0011650 288.9664 71.0308 15.19266176 46435 OreSat0 1 52017U 22026K 22321.43024164 .00006983 00000-0 35036-3 0 9997 2 52017 97.5089 319.5596 0028159 102.3713 258.0675 15.17284786 37366 Planetum 1 1 52738U 22057G 22321.32145083 .00006452 00000-0 35989-3 0 9991 2 52738 97.5249 73.7373 0008035 13.1224 347.0215 15.13880759 26548 Foresail-1 1 52766U 22057AL 22321.86192569 .00005927 00000-0 32236-3 0 9990 2 52766 97.5348 74.8212 0012964 349.2016 106.9624 15.14776862 26648 SNUGLITE 2 1 52899U 22065F 22321.77190923 .00001046 00000-0 23451-3 0 9995 2 52899 98.0388 108.0081 0008703 149.5935 210.5765 14.58559695 20042 CTIM 1 52950U 22074G 22321.08734485 .00014238 00000-0 53402-3 0 9990 2 52950 45.0087 88.4603 0007930 313.5724 46.4432 15.27177660 21031 GREENCUBE 1 53106U 22080B 22318.57638152 -.00000003 00000-0 00000-0 0 9994 2 53106 70.1759 34.2802 0008923 231.9986 127.9868 6.42557455 7961 AstroBioCubeSat 1 53107U 22080C 22315.54766503 -.00000003 00000-0 00000-0 0 9991 2 53107 70.2041 35.4121 0014675 227.5216 132.4160 6.42109755 7672 CELESTA 1 53111U 22080G 22255.68754390 -.00000003 00000-0 00000 0 0 9994 2 53111 70.1403 56.1372 0009077 226.1587 107.2159 6.42542501 3799 RS4S 1 53306U 98067TZ 22321.82992062 .00098733 00000-0 94519-3 0 9996 2 53306 51.6369 290.2734 0008665 89.3738 270.8251 15.65841628 18560 RS3S 1 53308U 98067TT 22321.83728655 .00093672 00000-0 91231-3 0 9999 2 53308 51.6368 290.3188 0008505 87.9951 272.2018 15.65435665 18623 RS1S 1 53309U 98067TU 22321.82207122 .00096472 00000-0 92048-3 0 9998 2 53309 51.6360 290.2118 0008837 92.1363 268.0645 15.65932850 18572 RS5S 1 53310U 98067TV 22321.83612460 .00093197 00000-0 90694-3 0 9992 2 53310 51.6365 290.3107 0008541 91.6261 268.5712 15.65458034 18602 RS6S 1 53311U 98067TW 22321.80615745 .00103332 00000-0 96477-3 0 9997 2 53311 51.6361 290.1047 0008590 86.4085 273.7893 15.66445403 18627 RS9S 1 53312U 98067TX 22321.82166909 .00090515 00000-0 87309-3 0 9995 2 53312 51.6365 290.2152 0008830 93.3939 266.8066 15.65688493 18567 RS12S 1 53313U 98067TY 22321.81913086 .00095934 00000-0 91847-3 0 9993 2 53313 51.6369 290.1986 0008392 93.4059 266.7896 15.65855033 18615 JAGSAT 1 53771U 98067UJ 22321.51717594 .00104868 00000-0 10629-2 0 9999 2 53771 51.6374 293.4340 0009199 104.3705 255.8312 15.64374721 11248 SelfieSat 1 53951U 22057BA 22321.27413879 .00007390 00000-0 40814-3 0 9999 2 53951 97.5296 73.9136 0010259 2.9659 357.1631 15.14171948 26544 /EX